Regional Weather Roundup
Issued by NWS

Home | Current Version | Previous Version | Text Only | Print | Product List | Glossary On
Versions: 1 2 3 4 5 6 7 8 9 10 11 12 13 14 15 16 17 18 19 20 21 22 23 24 25 26 27 28 29 30 31 32 33 34 35 36 37 38 39 40 41 42 43 44 45 46 47 48 49 50
000
ASUS43 KLSX 051707
RWRMO

WEATHER SUMMARY FOR MISSOURI
NATIONAL WEATHER SERVICE SPRINGFIELD MO
1200 PM CDT TUE MAY 05 2015

NOTE: "FAIR" INDICATES FEW OR NO CLOUDS BELOW 12,000 FEET WITH NO
       SIGNIFICANT WEATHER AND/OR OBSTRUCTIONS TO VISIBILITY.
       CURRENT SKY AND/OR WEATHER CONDITIONS ARE NOT AVAILABLE FOR
       CHILLICOTHE AND FARMINGTON.

MOZ001>031-035>038-043-044-053-054-051800-
...NORTHERN AND WESTERN MISSOURI...

CITY           SKY/WX    TMP DP  RH WIND       PRES   REMARKS
KANSAS CTY INT PTSUNNY   75  60  59 S10       30.11F
KANSAS C DTWN  MOSUNNY   77  59  53 S13       30.10F
LEE`S SUMMIT   MOSUNNY   76  57  51 S9        30.12F
ST JOSEPH      PTSUNNY   75  63  66 SW10      30.11S
CHILLICOTHE      N/A     76  63  64 S7        30.14S
KIRKSVILLE     MOSUNNY   77  62  59 SW10      30.15F

$$
MOZ066>068-077>081-088>096-101>105-051800-
...SOUTHWEST MISSOURI...

CITY           SKY/WX    TMP DP  RH WIND       PRES   REMARKS
SPRINGFIELD    PTSUNNY   74  60  61 S12       30.16S
JOPLIN         PTSUNNY   74  61  63 S14       30.13S

$$
MOZ032>034-039>042-045>050-055>058-069>072-051800-
...CENTRAL MISSOURI...

CITY           SKY/WX    TMP DP  RH WIND       PRES   REMARKS
COLUMBIA       MOSUNNY   80  57  45 SW16      30.16F
JEFFERSON CITY MOSUNNY   81  57  43 S8        30.15F
ROLLA          PTSUNNY   78  58  49 SE9G20    30.17F
SEDALIA        SUNNY     80  56  43 SW12      30.15F
WHITEMAN AFB   SUNNY     80  59  49 SW18      30.12F
WARRENSBURG    MOSUNNY   77  55  47 S13       30.13S
OSAGE BEACH    MOSUNNY   79  57  47 S10       30.16S

$$
MOZ051-052-059>065-051800-
...EAST CENTRAL MISSOURI...

CITY           SKY/WX    TMP DP  RH WIND       PRES   REMARKS
ST LOUIS INTL  MOSUNNY   84  55  36 W10       30.18F
SPIRIT OF STL  MOSUNNY   81  57  43 SW7G16    30.16F
ST CHARLES     MOSUNNY   82  53  36 W9        30.15F

$$
MOZ072>076-082>087-097>100-106>115-051800-
...SOUTH CENTRAL AND SOUTHEAST MISSOURI...

CITY           SKY/WX    TMP DP  RH WIND       PRES   REMARKS
CAPE GIRARDEAU SUNNY     80  59  48 S10       30.21F
FARMINGTON     MOSUNNY   79  57  47 SW12      30.25F
POPLAR BLUFF   MOSUNNY   80  61  52 SW12G17   30.20F
WEST PLAINS    MOSUNNY   75  58  55 S13G18    30.22F

$$



USA.gov is the U.S. government's official web portal to all federal, state and local government web resources and services.